"Pseudo-MPEC" for C161965

Created 2025 Oct 23 13:35:04 UT using Find_Orb

Click here for an explanation of pseudo-MPECs

 
 Astrometry: 
     C161965* C2025 10 03.45563504 24 09.529-02 26 29.90   ~A3Bo       VNEOCPV00
     C161965  C2025 10 03.46122704 24 02.560-02 25 10.96   ~A3Bo 20.34GVNEOCPV00
     C161965  C2025 10 03.46680604 23 55.518-02 23 50.82   ~A3Bo 20.21GVNEOCPV00
     C161965  C2025 10 03.47239104 23 48.520-02 22 31.87   ~A3Bo 21.14GVNEOCPV00
     C161965 mC2025 10 03.49679604 23 18.146-02 16 44.76   ~A3CK 21.31GVNEOCPV00
     C161965 mC2025 10 03.49718304 23 17.675-02 16 39.47   ~A3CK 21.48GVNEOCPV00
     C161965 mC2025 10 03.49757104 23 17.192-02 16 34.00   ~A3CK 21.13GVNEOCPV00
     C161965 mC2025 10 03.49796004 23 16.710-02 16 28.09   ~A3CK 20.87GVNEOCPV00
     C161965 mC2025 10 03.51397104 22 57.032-02 12 43.31   ~A3CZ 20.66GVNEOCPV00
     C161965 mC2025 10 03.51435704 22 56.568-02 12 37.84   ~A3CZ 20.90GVNEOCPV00
     C161965 mC2025 10 03.51474604 22 56.096-02 12 32.40   ~A3CZ 21.00GVNEOCPV00
     C161965 mC2025 10 03.51513404 22 55.618-02 12 26.89   ~A3CZ 20.93GVNEOCPV00

Station data:
(V00) Kitt Peak-Bok  (N31.963125 W111.600190)  US/Arizona. Measurers T.
   Beuden, V. F. Carvajal, D. Fay, J. B. Fazekas, D. C. Fuls, A. R. Gibbs, A.
   D. Grauer, H. Gröller, J. K. Hogan, R. A. Kowalski, S. M. Larson, G. J.
   Leonard, D. Rankin, R. L. Seaman, F. C. Shelly, K. W. Wierzchoś. 2.25-m
   reflector + 4x4K mosaic CCD.

Orbital elements:  C161965
   Perihelion 2025 Sep 3.499458 +/- 1.96 TT = 11:59:13.2 (JD 2460921.999458)
Epoch 2025 Oct  3.0 TT = JDT 2460951.5   Earth MOID: 0.0015   Ma: 0.0058
M  14.486818752 +/- 8               (J2000 ecliptic)             AutoNEOCP
n   0.491069586 +/- 0.261           Peri.  227.912899 +/- 70
a   1.591136202 +/- 0.564           Node   107.099211 +/- 70
e   0.39889530 +/- 0.228            Incl.    0.449580 +/- 0.22
P   2.007/733.080d         H 27.66  G  0.15   U 11.8
q 0.956439446 +/- 0.0238    Q 2.225832958 +/- 1.15
From 12 observations 2025 Oct. 3 (85.7 min); mean residual 0".29
Residuals in arcseconds: 
251003 V00  .51-  .62+    251003 V00  .11-  .27+    251003 V00  .08-  .16-    
251003 V00  .55+  .46-    251003 V00  .00   .10+    251003 V00  .04+  .11-    
251003 V00  .05+  .00     251003 V00  .06-  .09+    251003 V00  .09+  .13-    
251003 V00  .06+  .68-    251003 V00  .08-  .51+    251003 V00  .04+  .06-    

Ephemerides (geocentric):
Date (UTC) HH   RA             Dec           delta  r     elong  mag " sig PA
---- --------  ------------   ------------  ------ ------ -----  --- --------
2025 10 23 14  03 04 35.032   +12 46 09.74  .10727 1.0975 162.2 23.9 2485 163
2025 10 23 15  03 04 31.981   +12 46 27.60  .10747 1.0977 162.2 23.9 2487 163
2025 10 23 16  03 04 28.936   +12 46 45.39  .10767 1.0979 162.3 23.9 2489 163
2025 10 23 17  03 04 25.896   +12 47 03.11  .10787 1.0981 162.3 23.9 2491 163
2025 10 23 18  03 04 22.863   +12 47 20.76  .10806 1.0983 162.4 23.9 2493 163
2025 10 23 19  03 04 19.835   +12 47 38.34  .10826 1.0986 162.5 23.9 2495 163
2025 10 23 20  03 04 16.812   +12 47 55.85  .10846 1.0988 162.5 23.9 2496 163
2025 10 23 21  03 04 13.796   +12 48 13.30  .10866 1.0990 162.6 23.9 2498 162
2025 10 23 22  03 04 10.785   +12 48 30.67  .10886 1.0992 162.6 23.9 2500 162
2025 10 23 23  03 04 07.780   +12 48 47.98  .10906 1.0994 162.7 23.9 2502 162
2025 10 24 00  03 04 04.781   +12 49 05.22  .10926 1.0996 162.7 23.9 2504 162
2025 10 24 01  03 04 01.788   +12 49 22.40  .10946 1.0998 162.8 23.9 2505 162
2025 10 24 02  03 03 58.800   +12 49 39.51  .10966 1.1000 162.8 23.9 2507 162
2025 10 24 03  03 03 55.817   +12 49 56.55  .10986 1.1002 162.9 23.9 2509 162
2025 10 24 04  03 03 52.841   +12 50 13.53  .11006 1.1004 162.9 23.9 2511 162
2025 10 24 05  03 03 49.870   +12 50 30.44  .11026 1.1006 163.0 23.9 2513 162
2025 10 24 06  03 03 46.904   +12 50 47.29  .11045 1.1008 163.0 23.9 2514 162
2025 10 24 07  03 03 43.945   +12 51 04.08  .11065 1.1010 163.1 23.9 2516 162
2025 10 24 08  03 03 40.990   +12 51 20.80  .11085 1.1012 163.1 23.9 2518 162
2025 10 24 09  03 03 38.042   +12 51 37.45  .11105 1.1015 163.2 23.9 2520 162
2025 10 24 10  03 03 35.099   +12 51 54.05  .11125 1.1017 163.2 23.9 2521 162
2025 10 24 11  03 03 32.161   +12 52 10.58  .11145 1.1019 163.3 23.9 2523 162
2025 10 24 12  03 03 29.229   +12 52 27.05  .11166 1.1021 163.3 23.9 2525 162
2025 10 24 13  03 03 26.303   +12 52 43.45  .11186 1.1023 163.4 23.9 2527 162
2025 10 24 14  03 03 23.381   +12 52 59.80  .11206 1.1025 163.4 23.9 2528 162
2025 10 24 15  03 03 20.466   +12 53 16.08  .11226 1.1027 163.5 23.9 2530 162
2025 10 24 16  03 03 17.556   +12 53 32.30  .11246 1.1029 163.5 24.0 2532 161
2025 10 24 17  03 03 14.651   +12 53 48.46  .11266 1.1031 163.6 24.0 2533 161
2025 10 24 18  03 03 11.752   +12 54 04.56  .11286 1.1033 163.6 24.0 2535 161
2025 10 24 19  03 03 08.858   +12 54 20.60  .11306 1.1035 163.7 24.0 2537 161
2025 10 24 20  03 03 05.969   +12 54 36.58  .11326 1.1037 163.8 24.0 2539 161
2025 10 24 21  03 03 03.086   +12 54 52.50  .11346 1.1040 163.8 24.0 2540 161
2025 10 24 22  03 03 00.209   +12 55 08.36  .11366 1.1042 163.9 24.0 2542 161
2025 10 24 23  03 02 57.336   +12 55 24.16  .11387 1.1044 163.9 24.0 2544 161
2025 10 25 00  03 02 54.469   +12 55 39.90  .11407 1.1046 164.0 24.0 2545 161
2025 10 25 01  03 02 51.607   +12 55 55.59  .11427 1.1048 164.0 24.0 2547 161
2025 10 25 02  03 02 48.751   +12 56 11.22  .11447 1.1050 164.1 24.0 2549 161
2025 10 25 03  03 02 45.900   +12 56 26.79  .11467 1.1052 164.1 24.0 2550 161
2025 10 25 04  03 02 43.054   +12 56 42.30  .11487 1.1054 164.2 24.0 2552 161
2025 10 25 05  03 02 40.214   +12 56 57.76  .11508 1.1056 164.2 24.0 2554 161
2025 10 25 06  03 02 37.378   +12 57 13.15  .11528 1.1058 164.3 24.0 2555 161
2025 10 25 07  03 02 34.548   +12 57 28.50  .11548 1.1061 164.3 24.0 2557 161
2025 10 25 08  03 02 31.724   +12 57 43.78  .11568 1.1063 164.4 24.0 2559 161
2025 10 25 09  03 02 28.904   +12 57 59.01  .11588 1.1065 164.4 24.0 2560 161
2025 10 25 10  03 02 26.090   +12 58 14.19  .11609 1.1067 164.5 24.0 2562 161
2025 10 25 11  03 02 23.281   +12 58 29.31  .11629 1.1069 164.5 24.0 2563 161
2025 10 25 12  03 02 20.477   +12 58 44.38  .11649 1.1071 164.6 24.0 2565 160
2025 10 25 13  03 02 17.678   +12 58 59.39  .11670 1.1073 164.6 24.0 2567 160